Station 46022 (LLNR 500) - EEL RIVER - 17NM WSW of Eureka, CA Image indicating link to RSS feed of recent meteorological observations for station 46022


Conditions at 46022 as of
(12:10 pm PDT)
1910 GMT on 06/16/2024:
     

Click on the graph icon in the table below to see a time series plot of the last five days of that observation.

5-day plot - Wind Direction Wind Direction (WDIR): N ( 360 deg true )
5-day plot - Wind Speed Wind Speed (WSPD): 7.8 kts
5-day plot - Wind Gust Wind Gust (GST): 7.8 kts
5-day plot - Atmospheric Pressure Atmospheric Pressure (PRES):30.09 in
5-day plot - Air Temperature Air Temperature (ATMP): 52.5 °F
5-day plot - Water Temperature Water Temperature (WTMP): 52.3 °F
5-day plot - Dew Point Dew Point (DEWP): 50.0 °F
5-day plot - Wind Chill Wind Chill (CHILL): 49.5 °F
5-day plot - Wind Speed at 10 Meters Wind Speed at 10 meters (WSPD10M): 7.8 kts
5-day plot - Wind Speed at 20 Meters Wind Speed at 20 meters (WSPD20M): 7.8 kts
5-day plot -  Wind Speed, Wind Gust and Atmospheric Pressure Combined plot of Wind Speed, Gust, and Air Pressure
Supplemental Measurements
Highest 1-minute Wind Speed
Time (PDT)5-day plot - 1-Minute Wind Speed WSPD 5-day plot - 1-Minute Wind Direction WDIR
12:04 pm 7.8 kts-
Previous observations
TIME
(PDT)
5-day plot - Wind Direction
WDIR
 
5-day plot - Wind Speed
WSPD
kts
5-day plot - Wind Gust
GST
kts
5-day plot - Wave Height
WVHT
ft
5-day plot - Dominant Wave Period
DPD
sec
5-day plot - Average Wave Period
APD
sec
5-day plot - Mean Wave Direction
MWD
 
5-day plot - Atmospheric Pressure
PRES
in
5-day plot - Pressure Tendency
PTDY
in
5-day plot - Air Temperature
ATMP
°F
5-day plot - Water Temperature
WTMP
°F
5-day plot - Dew Point
DEWP
°F
5-day plot - Salinity
SAL
psu
5-day plot - Visibility
VIS
nmi
5-day plot - Tide (above MLLW)
TIDE
ft
2024-06-16 12:00 pm N 5.8 7.8----30.09+0.00 52.5 52.3 50.0---
2024-06-16 11:50 am N 5.8 7.8 5.9 96.2 NW30.09- 52.3 52.2 49.8---
2024-06-16 11:40 amNNW 5.8 7.8----30.09- 52.3 52.2 49.8---
2024-06-16 11:30 amNNW 5.8 7.8----30.09- 52.3 52.2 49.8---
2024-06-16 11:20 am NW 5.8 7.8 5.6 96.1 NW30.10- 52.2 52.0 49.8---
2024-06-16 11:10 amNNW 5.8 7.8 5.6-6.1 NW30.10- 52.2 51.8 49.8---
2024-06-16 11:00 amNNW 5.8 7.8----30.09+0.01 52.2 51.8 49.8---
2024-06-16 10:50 amNNW 5.8 7.8 5.9 96.4WNW30.09- 52.2 51.8 49.6---
2024-06-16 10:40 amNNW 7.8 9.7 5.9-6.4WNW30.09- 52.0 51.4 49.5---
2024-06-16 10:30 am NW 7.8 9.7----30.09- 52.0 51.4 49.6---
2024-06-16 10:20 am NW 7.8 9.7 5.6 86.3WNW30.09- 51.8 51.3 49.5---
2024-06-16 10:10 amNNW 5.8 7.8 5.6-6.3WNW30.09- 51.8 51.3 49.5---
2024-06-16 10:00 amNNW 5.8 5.8----30.08+0.00 51.8 51.1 49.5---
2024-06-16 09:50 am N 5.8 5.8 6.2 86.2WNW30.08- 51.8 51.1 49.5---
2024-06-16 09:40 amNNW 5.8 7.8 6.2-6.2WNW30.09- 51.6 50.9 49.3---
2024-06-16 09:30 amNNW 5.8 7.8----30.09- 51.6 50.9 49.3---
2024-06-16 09:20 amNNW 5.8 7.8 6.2 86.2WNW30.09- 51.6 50.9 49.3---
2024-06-16 09:10 amNNW 5.8 7.8----30.09- 51.6 50.9 49.3---
2024-06-16 09:00 amNNW 5.8 7.8----30.09-0.01 51.6 50.9 49.3---
2024-06-16 08:50 amNNW 5.8 7.8 5.9 96.3WNW30.09- 51.6 50.9 49.3---
2024-06-16 08:40 amNNW 5.8 7.8----30.08- 51.6 50.9 49.3---
2024-06-16 08:30 amNNW 5.8 7.8----30.08- 51.6 50.9 49.3---
2024-06-16 08:20 amNNW 5.8 7.8 5.9 85.9 NW30.08- 51.6 50.9 49.3---
2024-06-16 08:10 amNNW 5.8 7.8 5.9-5.9 NW30.08- 51.4 50.9 49.3---
2024-06-16 08:00 amNNW 5.8 9.7----30.08-0.03 51.4 50.7 49.5---
2024-06-16 07:50 amNNW 5.8 7.8 6.9 96.4WNW30.08- 51.4- 49.5---
2024-06-16 07:40 amNNW 5.8 7.8 6.9-6.4WNW30.09- 51.4 50.7 49.5---
2024-06-16 07:30 amNNW 5.8 7.8----30.09- 51.4 50.7 49.1---
2024-06-16 07:20 amNNW 5.8 7.8 6.6 96.1WNW30.09- 51.4 50.7 49.1---
2024-06-16 07:10 am N 7.8 9.7 6.6-6.1WNW30.09- 51.4 50.7 48.9---
2024-06-16 07:00 am N 7.8 9.7----30.09-0.02 51.4 50.7 48.9---
2024-06-16 06:50 am N 7.8 9.7 6.6 86.2 NW30.09- 51.6 50.7 48.9---
2024-06-16 06:40 am N 7.8 11.7 6.6-6.2 NW30.09- 51.6 50.7 48.9---
2024-06-16 06:30 am N 7.8 11.7----30.08- 51.6 50.7 48.7---
2024-06-16 06:20 am N 9.7 11.7 6.2 86.3WNW30.09- 51.6 50.7 48.6---
2024-06-16 06:10 am N 9.7 11.7 6.2-6.3WNW30.09- 51.6 50.7 48.6---
2024-06-16 06:00 am N 9.7 11.7----30.10-0.03 51.6 50.7 48.6---
2024-06-16 05:50 am N 9.7 11.7 6.6 96.3WNW30.10- 51.8 50.7 48.6---
2024-06-16 05:40 am N 9.7 11.7 6.6-6.3WNW30.10- 51.6 50.7 48.4---
2024-06-16 05:30 am N 9.7 11.7----30.10- 51.6 50.5 48.4---
2024-06-16 05:20 am N 7.8 11.7 5.9 75.9 NW30.10- 51.6 50.5 48.6---
2024-06-16 05:10 am N 7.8 9.7 5.9-5.9 NW30.10- 51.8 50.5 48.7---
2024-06-16 05:00 am N 7.8 9.7----30.11-0.03 51.8 50.9 48.9---
2024-06-16 04:50 am N 7.8 9.7 6.2 86.1WNW30.11- 51.8 50.9 48.9---
2024-06-16 04:40 am N 7.8 9.7----30.11- 51.8 50.9 48.9---
2024-06-16 04:30 am N 7.8 9.7----30.11- 51.8 51.1 48.9---
2024-06-16 04:20 am N 7.8 9.7 5.9 96.1 NW30.11- 52.0 51.1 48.9---
2024-06-16 04:10 am N 7.8 9.7----30.11- 52.0 51.1 48.9---
2024-06-16 04:00 am N 7.8 9.7----30.11-0.04 51.8 51.1 48.9---
2024-06-16 03:50 am N 7.8 9.7 5.9 96.2WNW30.11- 51.8 51.3 48.9---
2024-06-16 03:40 am N 7.8 9.7 5.9-6.2WNW30.12- 51.8 51.3 49.1---
2024-06-16 03:30 am N 7.8 9.7----30.12- 51.8 51.3 49.1---
2024-06-16 03:20 amNNW 7.8 9.7 5.9 96.5WNW30.13- 51.8 51.3 49.1---
2024-06-16 03:10 amNNW 7.8 9.7 5.9-6.5WNW30.13- 51.8 51.3 49.3---
2024-06-16 03:00 am N 5.8 9.7----30.13-0.04 51.8 51.3 49.5---
2024-06-16 02:50 am N 5.8 7.8 6.2 96.5 NW30.13- 51.8 51.3 49.5---
2024-06-16 02:40 am N 5.8 7.8 6.2-6.5 NW30.12- 51.8 51.3 49.3---
2024-06-16 02:30 am N 5.8 7.8----30.13- 52.0 51.3 49.5---
2024-06-16 02:20 am N 7.8 9.7 5.6 86.2 NW30.13- 52.0 51.1 49.5---
2024-06-16 02:10 am N 7.8 9.7 5.6-6.2 NW30.13- 52.0 51.1 49.3---
2024-06-16 02:00 am N 7.8 11.7----30.14-0.03 52.0 51.1 49.5---
2024-06-16 01:50 am N 5.8 7.8 5.6 86.2WNW30.14- 52.0 51.1 49.5---
2024-06-16 01:40 am N 7.8 9.7----30.14- 52.0 51.1 49.3---
2024-06-16 01:30 am N 7.8 9.7----30.14- 52.0 50.9 49.3---
2024-06-16 01:20 amNNW 7.8 9.7 5.2 86.0WNW30.15- 52.0 51.1 49.3---
2024-06-16 01:10 am N 7.8 7.8 5.2-6.0WNW30.15- 52.2 51.1 49.5---
2024-06-16 01:00 am N 7.8 7.8----30.16-0.02 52.2 51.1 49.5---
2024-06-16 12:50 am N 5.8 7.8 5.2 86.1 NW30.16- 52.2 51.3 49.5---
2024-06-16 12:40 am N 5.8 7.8 5.2-6.1 NW30.16- 52.2 51.3 49.5---
2024-06-16 12:30 am N 5.8 7.8----30.16- 52.2 51.4 49.3---
2024-06-16 12:20 am N 5.8 9.7 5.2 96.1WNW30.16- 52.2 51.4 49.3---
2024-06-16 12:10 am N 5.8 7.8 5.2-6.1WNW30.17- 52.2 51.4 49.3---
2024-06-16 12:00 am N 7.8 7.8----30.17+0.00 52.2 51.4 49.1---
2024-06-15 11:50 pm N 7.8 9.7 4.9 96.1WNW30.17- 52.2 51.3 49.1---
2024-06-15 11:40 pm N 7.8 9.7 4.9-6.1WNW30.17- 52.2 51.1 48.9---
2024-06-15 11:30 pm N 7.8 9.7----30.17- 52.2 51.1 48.7---
2024-06-15 11:20 pm N 7.8 9.7 5.2 96.2WNW30.17- 52.2 51.1 48.7---
2024-06-15 11:10 pm N 9.7 9.7 5.2-6.2WNW30.17- 52.2 51.1 48.9---
2024-06-15 11:00 pm N 7.8 9.7----30.17-0.01 52.2 51.1 48.7---
2024-06-15 10:50 pm N 9.7 11.7 4.9 106.1WNW30.17- 52.3 50.9 48.9---
2024-06-15 10:40 pm N 9.7 11.7----30.18- 52.3 50.9 48.7---
2024-06-15 10:30 pm N 9.7 11.7----30.18- 52.3 50.9 48.7---
2024-06-15 10:20 pm N 9.7 11.7 5.2 106.2WNW30.18- 52.2 50.9 48.6---
2024-06-15 10:10 pm N 9.7 11.7 5.2-6.2WNW30.19- 52.3 50.7 48.7---
2024-06-15 10:00 pm N 9.7 11.7----30.18+0.00 52.3 50.7 48.7---
2024-06-15 09:50 pm N 9.7 11.7 5.2 106.1WNW30.18- 52.3 50.5 48.6---
2024-06-15 09:40 pm N 9.7 11.7 5.2-6.1WNW30.18- 52.3 50.4 48.6---
2024-06-15 09:30 pm N 9.7 11.7----30.18- 52.5 50.4 48.7---
2024-06-15 09:20 pm N 9.7 11.7 4.9 116.0WNW30.17- 52.5 50.4 48.7---
2024-06-15 09:10 pm N 9.7 13.6 4.9-6.0WNW30.17- 52.5 50.2 48.7---
2024-06-15 09:00 pm N 11.7 13.6----30.17-0.01 52.5 50.2 48.7---
2024-06-15 08:50 pm N 11.7 13.6 4.9 96.0WNW30.17- 52.7 50.2 48.9---
2024-06-15 08:40 pm N 11.7 15.5 4.9-6.0WNW30.17- 52.7 50.0 48.9---
2024-06-15 08:30 pm N 11.7 15.5----30.17- 52.7 50.0 49.1---
2024-06-15 08:20 pm N 11.7 13.6 5.2 95.9WNW30.17- 52.7 50.2 49.1---
2024-06-15 08:10 pm N 11.7 13.6----30.18- 52.9 50.2 49.1---
2024-06-15 08:00 pm N 11.7 13.6----30.18-0.01 52.9 50.2 48.9---
2024-06-15 07:50 pm N 11.7 13.6 5.6 106.3WNW30.18- 53.1 50.2 49.1---
2024-06-15 07:40 pm N 11.7 13.6 5.6-6.3WNW30.18- 53.1 50.4 49.1---
2024-06-15 07:30 pm N 11.7 15.5----30.18- 53.1 50.2 49.1---
2024-06-15 07:20 pmNNW 11.7 15.5 4.9 95.8WNW30.18- 53.1 50.2 49.1---
2024-06-15 07:10 pmNNW 13.6 15.5 4.9-5.8WNW30.18- 53.2 50.2 49.3---
2024-06-15 07:00 pm N 13.6 15.5----30.18-0.03 53.1 50.4 49.1---
2024-06-15 06:50 pm N 13.6 15.5 4.9 106.0WNW30.18- 53.1 50.5 49.3---
2024-06-15 06:40 pm N 13.6 15.5 4.9-6.0WNW30.18- 53.1 50.5 49.3---
2024-06-15 06:30 pm N 11.7 15.5----30.18- 52.9 50.4 49.3---
2024-06-15 06:20 pm N 11.7 13.6 4.9 115.9WNW30.18- 52.9 50.4 49.3---
2024-06-15 06:10 pm N 13.6 15.5 4.9-5.9WNW30.18- 52.9 50.7 49.3---
2024-06-15 06:00 pm N 13.6 15.5----30.18-0.04 53.1 50.9 49.5---
2024-06-15 05:50 pm N 13.6 15.5 5.2 106.2WNW30.18- 53.1 50.9 49.5---
2024-06-15 05:40 pm N 13.6 15.5----30.19- 53.1 50.9 49.5---
2024-06-15 05:30 pmNNW 13.6 15.5----30.20- 53.1 50.9 49.5---
2024-06-15 05:20 pmNNW 13.6 15.5 5.2 115.9WNW30.19- 53.1 51.1 49.5---
2024-06-15 05:10 pmNNW 13.6 15.5 5.2-5.9WNW30.19- 53.1 51.1 49.6---
2024-06-15 05:00 pmNNW 13.6 17.5----30.19-0.04 53.1 51.3 49.6---
2024-06-15 04:50 pmNNW 13.6 17.5 5.2 116.0WNW30.20- 53.2 51.4 49.6---
2024-06-15 04:40 pmNNW 13.6 17.5 5.2-6.0WNW30.20- 53.2 51.6 49.6---
2024-06-15 04:20 pmNNW 13.6 15.5 5.2 116.0WNW30.21- 53.2 52.2 49.6---
2024-06-15 04:10 pmNNW 13.6 15.5----30.21- 53.4 52.0 49.8---
2024-06-15 04:00 pmNNW 13.6 15.5----30.21-0.02 53.4 52.0 49.6---
2024-06-15 03:50 pmNNW 13.6 17.5 5.2 95.8WNW30.21- 53.6 52.0 49.8---
2024-06-15 03:40 pmNNW 13.6 15.5 5.2-5.8WNW30.22- 53.6 52.0 49.6---
2024-06-15 03:30 pmNNW 13.6 15.5----30.22- 53.6 52.2 49.6---
2024-06-15 03:20 pmNNW 13.6 15.5 4.9 105.9WNW30.22- 53.4 52.0 49.5---
2024-06-15 03:10 pmNNW 13.6 15.5 4.9-5.9WNW30.22- 53.6 51.8 49.6---
2024-06-15 03:00 pmNNW 13.6 15.5----30.22-0.02 53.4 51.6 49.3---
2024-06-15 02:50 pmNNW 13.6 17.5 5.2 106.1WNW30.22- 53.4 51.6 49.5---
2024-06-15 02:40 pmNNW 13.6 15.5 5.2-6.1WNW30.22- 53.2 51.4 49.5---
2024-06-15 02:30 pmNNW 13.6 15.5----30.22- 53.2 51.3 49.6---
2024-06-15 02:20 pmNNW 13.6 15.5 5.6 106.6WNW30.22- 53.2 51.4 49.8---
2024-06-15 02:10 pmNNW 11.7 13.6 5.6-6.6WNW30.23- 53.1 51.4 49.6---
2024-06-15 02:00 pm NW 11.7 13.6----30.23+0.00 53.1 51.4 49.8---
2024-06-15 01:50 pm NW 9.7 13.6 4.9 106.4WNW30.23- 53.1 51.6 50.0---
2024-06-15 01:40 pm NW 9.7 11.7 4.9-6.4WNW30.23- 52.9 52.0 50.0---
2024-06-15 01:30 pm NW 9.7 11.7----30.24- 52.9 51.8 50.2---
2024-06-15 01:20 pm NW 9.7 11.7 5.6 106.8WNW30.24- 52.7 51.8 50.2---
2024-06-15 01:10 pm NW 9.7 11.7 5.6-6.8WNW30.24- 52.7 51.6 50.4---
2024-06-15 01:00 pm NW 9.7 11.7----30.24+0.00 52.5 51.8 50.4---
2024-06-15 12:50 pm NW 9.7 11.7 5.2 106.8WNW30.23- 52.5 51.8 50.5---
2024-06-15 12:40 pm NW 9.7 11.7----30.24- 52.5 51.8 50.5---
2024-06-15 12:30 pm NW 9.7 11.7----30.24- 52.5 51.8 50.5---
2024-06-15 12:20 pm NW 7.8 9.7 5.2 106.9WNW30.24- 52.5 51.6 50.5---
2024-06-15 12:10 pmNNW 7.8 9.7 5.2-6.9WNW30.24- 52.5 51.6 50.4---
2024-06-15 12:00 pmNNW 9.7 11.7----30.24+0.00 52.5 51.4 50.4---
2024-06-15 11:50 amNNW 9.7 11.7 5.6 107.2WNW30.24- 52.5 51.4 50.4---

Detailed Wave Summary
for 46022 as of (11:40 am PDT)
1840 GMT on 06/16/2024:

These wave data are displayed in rounded times.

     

Click on the graph icon in the table below to see a time series plot of the last five days of that observation.

5-day plot - Significant Wave Height Significant Wave Height (WVHT): 5.9 ft
5-day plot - Swell Height Swell Height (SwH): 5.6 ft
5-day plot - Swell Period Swell Period (SwP): 9.1 sec
5-day plot - Swell Direction Swell Direction (SwD): NW
5-day plot - Wind Wave Height Wind Wave Height (WWH): 1.3 ft
5-day plot - Wind Wave Period Wind Wave Period (WWP): 3.4 sec
5-day plot - Wind Wave Direction Wind Wave Direction (WWD): NW
5-day plot - Wave Steepness Wave Steepness (STEEPNESS): AVERAGE
5-day plot - Average Wave Period Average Wave Period (APD): 6.2 sec
Previous observations
TIME
(PDT)
5-day plot - Wave Height
WVHT
ft
5-day plot - Swell Height
SwH
ft
5-day plot - Swell Period
SwP
sec
5-day plot - Swell Direction
SwD
 
5-day plot - Wind Wave Height
WWH
ft
5-day plot - Wind Wave Period
WWP
sec
5-day plot - Wind Wave Direction
WWD
 
5-day plot - Wave Steepness
STEEPNESS
 
5-day plot - Average Wave Period
APD
sec
2024-06-16 11:10 am 5.6 5.2 9.1 NW 1.6 3.7 NW AVERAGE 6.1
2024-06-16 10:40 am 5.9 5.9 9.1WNW 1.6 3.8 NNW AVERAGE 6.4
2024-06-16 10:10 am 5.6 5.6 8.3WNW 1.6 3.8 NNW AVERAGE 6.3
2024-06-16 09:40 am 6.2 5.9 8.3WNW 1.6 3.7 NNW AVERAGE 6.2
2024-06-16 09:10 am 6.2 5.9 8.3WNW 1.6 4.0 NNW AVERAGE 6.2
2024-06-16 08:40 am 5.9 5.9 9.1WNW 1.6 4.0 NNW AVERAGE 6.3
2024-06-16 08:10 am 5.9 5.6 8.3 NW 2.0 4.0 NNW AVERAGE 5.9
2024-06-16 07:40 am 6.9 6.6 9.1WNW 1.6 3.7 NNW AVERAGE 6.4
2024-06-16 07:10 am 6.6 6.2 9.1WNW 1.6 3.6 NW AVERAGE 6.1
2024-06-16 06:40 am 6.6 6.2 7.7 NW 2.0 4.2 NW STEEP 6.2
2024-06-16 06:10 am 6.2 5.9 8.3WNW 2.0 4.2 NW AVERAGE 6.3
2024-06-16 05:40 am 6.6 6.2 9.1WNW 2.3 4.2 NW AVERAGE 6.3
2024-06-16 05:10 am 5.9 5.9 6.7 NW 1.6 4.0 NW STEEP 5.9
2024-06-16 04:40 am 6.2 5.9 7.7WNW 1.6 3.8 NW STEEP 6.1
2024-06-16 04:10 am 5.9 5.6 9.1 NW 1.6 4.0 NW AVERAGE 6.1
2024-06-16 03:40 am 5.9 5.9 9.1WNW 1.3 3.6 NW AVERAGE 6.2
2024-06-16 03:10 am 5.9 5.9 9.1WNW 1.3 4.0 WNW AVERAGE 6.5
2024-06-16 02:40 am 6.2 5.9 9.1 NW 1.3 4.0 NW AVERAGE 6.5
2024-06-16 02:10 am 5.6 5.6 8.3 NW 1.3 3.8 NW AVERAGE 6.2
2024-06-16 01:40 am 5.6 5.2 7.7WNW 1.3 3.8 NW AVERAGE 6.2
2024-06-16 01:10 am 5.2 5.2 8.3WNW 1.3 3.8 NW AVERAGE 6.0
2024-06-16 12:40 am 5.2 4.9 8.3 NW 1.3 3.7 NW AVERAGE 6.1
2024-06-16 12:10 am 5.2 4.9 9.1WNW 1.3 3.7 NW AVERAGE 6.1
2024-06-15 11:40 pm 4.9 4.9 9.1WNW 1.3 3.3 NW AVERAGE 6.1
2024-06-15 11:10 pm 5.2 4.9 9.1WNW 1.6 4.3 NNW AVERAGE 6.2
2024-06-15 10:40 pm 4.9 4.6 10.0WNW 2.0 4.8 NW SWELL 6.1
2024-06-15 10:10 pm 5.2 4.9 10.0WNW 1.6 3.8 NNW SWELL 6.2
2024-06-15 09:40 pm 5.2 4.9 10.0WNW 2.0 4.0 NW SWELL 6.1
2024-06-15 09:10 pm 4.9 4.6 10.8WNW 2.0 4.5 NW SWELL 6.0
2024-06-15 08:40 pm 4.9 4.3 9.1WNW 2.6 4.8 WNW AVERAGE 6.0
2024-06-15 08:10 pm 5.2 4.6 9.1WNW 2.3 3.6 NNW AVERAGE 5.9
2024-06-15 07:40 pm 5.6 4.9 10.0WNW 2.6 5.6 NW SWELL 6.3
2024-06-15 07:10 pm 4.9 3.9 9.1WNW 3.0 6.2 WNW AVERAGE 5.8
2024-06-15 06:40 pm 4.9 4.3 10.0WNW 3.0 6.2 NW SWELL 6.0
2024-06-15 06:10 pm 4.9 4.3 10.8WNW 3.0 6.2 WNW SWELL 5.9
2024-06-15 05:40 pm 5.2 4.3 10.0WNW 3.0 5.9 NW SWELL 6.2
2024-06-15 05:10 pm 5.2 4.3 10.8WNW 3.0 5.3 NW SWELL 5.9
2024-06-15 04:40 pm 5.2 4.3 10.8WNW 3.0 5.9 NW SWELL 6.0
2024-06-15 04:10 pm 5.2 4.3 10.8WNW 3.0 6.2 WNW SWELL 6.0
2024-06-15 03:40 pm 5.2 4.3 9.1WNW 2.6 4.8 WNW AVERAGE 5.8
2024-06-15 03:10 pm 4.9 3.9 10.0WNW 3.0 5.3 WNW SWELL 5.9
2024-06-15 02:40 pm 5.2 4.6 10.0WNW 3.0 6.2 WNW SWELL 6.1
2024-06-15 02:10 pm 5.6 4.9 10.0WNW 2.6 5.9 WNW SWELL 6.6
2024-06-15 01:40 pm 4.9 4.6 10.0WNW 2.0 4.8 WNW SWELL 6.4
2024-06-15 01:10 pm 5.6 5.2 10.0WNW 1.6 4.0 NW SWELL 6.8
2024-06-15 12:40 pm 5.2 5.2 10.0WNW 1.3 4.2 WNW SWELL 6.8
2024-06-15 12:10 pm 5.2 4.9 10.0WNW 1.0 3.6 WNW SWELL 6.9

Plot of wave energy versus frequency (and period)